Location: Llanfihangel-Ystrad
(52.1833°N, 4.1667°W)
Time: 22:14:34
(UTC+00:00)

Cosmos 2369 Rocket - Pass Details

Date: 17 February 2020
Orbit: 827 x 854 km, 71.0° (Epoch: 05 April)

Event Time Altitude Azimuth Distance (km) Brightness Sun altitude
Exits shadow 04:49:36 13° 333° (NNW) 2,284 4.3 -25.0°
Maximum altitude 04:54:45 67° 55° (NE) 927 2.5 -24.2°
Drops below altitude 10° 05:00:26 10° 139° (SE) 2,482 5.0 -23.4°
Sets 05:02:54 0° 142° (SE) 3,413 5.7 -23.0°
